Home   Weather   Örebro   Past weeks

Flag for Sweden Past Weather in Örebro, Sweden — Yesterday and Last 2 Weeks

Now
30 °F

Chilly.


Feels Like: 22 °F
Forecast: 32 / 41 °F
Wind: 9 mph from Southwest

Location: Orebro Private

Current Time: Jan 24, 2017 at 2:26:56 am

Latest Report: Jan 24, 2017 at 1:50 am


Visibility: N/A

Pressure: 30.07 "Hg

Humidity: 93%

Dew Point: 28 °F

Location of ÖrebroLocation

Past Weather in Örebro — Graph

°F

Örebro Temperature Yesterday

Maximum temperature yesterday: 39 °F (at 12:20 am)
Minimum temperature yesterday: 30 °F (at 7:50 pm)
Average temperature yesterday: 36 °F

High & Low Weather Summary for the Past Weeks

 TemperatureHumidityPressure
High46 °F (Jan 20, 12:20 pm)100% (Jan 9, 12:20 am)30.45 "Hg (Jan 9, 12:20 am)
Low16 °F (Jan 15, 9:20 am)69% (Jan 15, 11:50 am)28.62 "Hg (Jan 11, 10:20 pm)
Average34 °F92%29.86 "Hg
* Reported Jan 9 12:20 am — Jan 24 12:50 am, Örebro, Weather by CustomWeather, © 2017

Note: Actual official high and low records may vary slightly from our data, if they occured in-between our weather recording intervals... More about our weather records

Advertising

Örebro Weather History for the Previous 24 Hours

Scroll right to see more
 ConditionsComfort  
Time TempWeatherWind HumidityBarometerVisibility
12:50 am
Tue, Jan 24
30 °FClear.12 mph100%30.04 "Hg10 mi
12:20 am32 °FClear.8 mph93%30.04 "Hg10 mi
11:50 pm
Mon, Jan 23
32 °FClear.8 mph93%30.04 "Hg10 mi
11:20 pm32 °FClear.10 mph93%30.04 "Hg10 mi
10:50 pm34 °FClear.10 mph87%30.04 "Hg10 mi
10:20 pm34 °FClear.12 mph87%30.01 "Hg10 mi
9:50 pm32 °FClear.8 mph93%30.01 "Hg10 mi
9:20 pm32 °FClear.9 mph100%30.01 "Hg10 mi
8:50 pm32 °FClear.10 mph100%30.01 "Hg10 mi
8:20 pm30 °FClear.9 mph100%29.98 "Hg10 mi
7:50 pm30 °FClear.8 mph100%29.98 "Hg10 mi
7:20 pm32 °FClear.8 mph93%29.98 "Hg10 mi
6:50 pm34 °FClear.9 mph87%29.98 "Hg10 mi
6:20 pm32 °FClear.9 mph93%29.98 "Hg10 mi
5:50 pm32 °FClear.7 mph93%29.98 "Hg10 mi
5:20 pm34 °FClear.9 mph87%29.98 "Hg10 mi
4:50 pm34 °FClear.10 mph87%29.95 "Hg10 mi
4:20 pm36 °FClear.12 mph87%29.95 "Hg10 mi
3:50 pm36 °FSunny.13 mph87%29.95 "Hg10 mi
3:20 pm37 °FSunny.9 mph81%29.98 "Hg10 mi
2:50 pm37 °FSunny.10 mph81%29.95 "Hg10 mi
2:20 pm37 °FSunny.12 mph81%29.95 "Hg10 mi
1:50 pm37 °FSunny.12 mph81%29.95 "Hg10 mi
1:20 pm37 °FSunny.10 mph81%29.95 "Hg10 mi
12:50 pm37 °FSunny.12 mph81%29.95 "Hg10 mi
12:20 pm37 °FPassing clouds.13 mph81%29.98 "HgN/A
11:50 am37 °FPassing clouds.12 mph81%29.98 "HgN/A
11:20 am37 °FPassing clouds.9 mph81%29.98 "HgN/A
10:50 am36 °FPassing clouds.14 mph93%29.98 "HgN/A
10:20 am36 °FScattered clouds.15 mph87%29.98 "HgN/A
9:50 am36 °FScattered clouds.16 mph87%29.98 "HgN/A
9:20 am36 °FPartly sunny.15 mph93%29.98 "HgN/A
8:50 am37 °FPartly sunny.15 mph87%29.98 "HgN/A
8:20 am37 °FPassing clouds.14 mph87%29.95 "HgN/A
7:50 am37 °FPassing clouds.14 mph87%29.95 "HgN/A
7:20 am39 °FPassing clouds.14 mph87%29.98 "HgN/A
6:50 am39 °FPassing clouds.13 mph87%29.98 "HgN/A
6:20 am39 °FOvercast.13 mph87%29.98 "HgN/A
5:50 am39 °FOvercast.12 mph87%29.98 "HgN/A
5:20 am39 °FOvercast.10 mph93%30.01 "HgN/A
4:50 am39 °FOvercast.8 mph87%30.01 "HgN/A
4:20 am39 °FOvercast.9 mph87%30.01 "HgN/A
3:50 am39 °FOvercast.13 mph87%30.01 "HgN/A
3:20 am39 °FOvercast.13 mph87%30.01 "HgN/A
2:50 am39 °FOvercast.12 mph87%30.01 "HgN/A
2:20 am39 °FOvercast.13 mph87%30.04 "HgN/A
Weather by CustomWeather, © 2017

See weather overviewHow to use our weather pages